Regional Weather Roundup
Issued by NWS Sterling, VA

Home | Current Version | Previous Version | Graphics & Text | Print | Product List | Glossary On
Versions: 1 2 3 4 5 6 7 8 9 10 11 12 13 14 15 16 17 18 19 20 21 22 23 24 25 26 27 28 29 30 31 32 33 34 35 36 37 38 39 40 41 42 43 44 45 46 47 48 49 50
000
ASUS41 KLWX 132310
RWRLWX

REGIONAL WEATHER ROUNDUP
NATIONAL WEATHER SERVICE BALTIMORE MD/WASHINGTON DC
700 PM EDT SUN JUL 13 2014

Note: "FAIR" indicates few or no clouds below 12,000 feet
with no significant weather and/or obstructions to visibility.
 TC=TEMPERATURE CELSIUS

 * =Non NWS site. Station does not report precipitation (e.g. rain,
    snow, etc.), thunder, or fog.

DCZ001-MDZ009-015-VAZ040>042-051-053>054-140000-
WASHINGTON METRO

CITY           SKY/WX    TMP DP  RH WIND       PRES   REMARKS
WASHINGTON NAT PTSUNNY   90  68  48 S12       29.92S HX  94
DULLES         PTSUNNY   86  69  56 SW7       29.92S HX  90
ANDREWS AFB    MOSUNNY   89  71  56 S13       29.94R HX  94
FT BELVOIR     MOSUNNY   89  73  58 SE5       29.93S HX  96
QUANTICO       SUNNY     90  68  48 SW9       29.94R HX  94
COLLEGE PARK*  SUNNY     91  68  46 S7        29.92R HX  95
LEESBURG*      MOSUNNY   86  73  66 SW5       29.93S HX  93
GAITHERSBURG*  MOSUNNY   88  70  55 S7        29.96F HX  92

$$

MDZ006>007-011-014-140000-
BALTIMORE METRO

CITY           SKY/WX    TMP DP  RH WIND       PRES   REMARKS
BWI AIRPORT    PTSUNNY   89  67  47 S9        29.91S HX  92
MD SCIENCE CTR   N/A     91  68  46 MISG      29.91R HX  95
MARTIN STATE   MOSUNNY   88  77  70 SE15      29.92S HX 100
ANNAPOLIS      PTSUNNY   84  75  74 S16G24    29.92S HX  92
FORT MEADE*    SUNNY     86  68  54 S5        29.94R

$$

MDZ012-015-019>023-140000-
MARYLAND EASTERN SHORE

CITY           SKY/WX    TMP DP  RH WIND       PRES   REMARKS
OCEAN CITY     MOSUNNY   79  74  84 S10G22    29.99F
SALISBURY      PTSUNNY   83  72  69 S10       29.97S
BAY BRIDGE AP*   N/A     86  72  62 S14G20    29.93S HX  92
CAMBRIDGE*     PTSUNNY   84  70  61 S7G16     29.96R
EASTON*        PTSUNNY   88  75  66 SW17G24   29.98R HX  97

$$

MDZ017>025-140000-
SOUTHERN MARYLAND

CITY           SKY/WX    TMP DP  RH WIND       PRES   REMARKS
PATUXENT RIVER MOSUNNY   83  72  69 S8        29.95S
ST INIGOES     MOSUNNY   83  71  67 S8        29.95S
LEONARDTOWN*   MOSUNNY   84  70  61 S7        29.97S

$$

MDZ003>005-140000-
NORTH CENTRAL MARYLAND

CITY           SKY/WX    TMP DP  RH WIND       PRES   REMARKS
FREDERICK*     MOSUNNY   86  73  66 S6        29.94R HX  93
HAGERSTOWN APT PTSUNNY   85  70  60 S14       29.91S
WESTMINSTER*   MOSUNNY   88  72  58 S7        29.94R HX  94

$$

MDZ501>502-140000-
WESTERN MARYLAND

CITY           SKY/WX    TMP DP  RH WIND       PRES   REMARKS
OAKLAND*       CLOUDY    63 N/A N/A SW10G20   30.10R FOG
CUMBERLAND*    CLOUDY    79  70  73 W10G24    30.00R

$$

VAZ025>031-140000-
SHENANDOAH VALLEY

CITY           SKY/WX    TMP DP  RH WIND       PRES   REMARKS
WINCHESTER*    PTSUNNY   86  70  58 S9        29.93R THUNDER HX  90
STAUNTON*      PTSUNNY   78  73  85 CALM      30.01S

$$

WVZ021-048>050-054>055-140000-
EASTERN WEST VIRGINIA PANHANDLE

CITY           SKY/WX    TMP DP  RH WIND       PRES   REMARKS
MARTINSBURG    PTSUNNY   85  71  63 S7        29.92S HX  90
PETERSBURG*    PTSUNNY   83  67  59 CALM      29.96R THUNDER

$$

VAZ036>039-050-140000-
CENTRAL FOOTHILLS

CITY           SKY/WX    TMP DP  RH WIND       PRES   REMARKS
CHARLOTTESVILL PTSUNNY   85  70  60 SW8       29.97R
ORANGE*        MOSUNNY   86  68  54 S7        29.98R

$$

VAZ055>057-140000-
NORTH AND CENTRAL PIEDMONT

CITY           SKY/WX    TMP DP  RH WIND       PRES   REMARKS
FREDERICKSBRG* SUNNY     91  69  48 SW10G20   29.94R HX  96
STAFFORD*      SUNNY     90  69  50 S5        29.98R HX  94

$$

NCZ024-NYZ072-PAZ021-071-VAZ022-071-140000-
OTHER REGIONAL OBSERVATIONS

CITY           SKY/WX    TMP DP  RH WIND       PRES   REMARKS
NEW YORK CITY  PTSUNNY   78  69  73 VRB6      29.93S
PHILADELPHIA   PTSUNNY   90  69  50 SW14      29.91S HX  94
PITTSBURGH     PTSUNNY   78  71  79 SW9       29.92F
ROANOKE        PTSUNNY   86  69  56 S13       30.02F HX  90
RICHMOND       MOSUNNY   91  66  43 S16       29.98R HX  93
RALEIGH        MOSUNNY   90  66  45 S9        30.01S HX  92

$$

ANZ530>537-140000-
MARINE OBSERVATIONS

STATION/POSITION TIME  TEMP    WIND        PRES
                       AIR SEA DIR/SP/G
                 (UTC) (F)     (DEG/KT/KT) (MB)
THOMAS PT LIGHT  2300   83 79  180/ 19/ 21 1013.7S
BALT KEY BRIDGE  2300   89     190/ 12/ 15 1012.4S
COVE POINT       2300   82     190/ 13/ 15 1014.0R
LEWISETTA        2300   86 83  200/ 10/ 12 1014.4S
SOLOMONS ISLAND  2300      82                N/A
PINEY POINT      2300          210/ 12/ 15   N/A

$$



USA.gov is the U.S. government's official web portal to all federal, state and local government web resources and services.